K1PH Weather Reports


time (UTC)temp
C
wind
direction
speed
KPH
gust
KPH
rain 1hr
cm
rain 24hr
cm
rain mn
cm
humidity
%
barometer
mb
20260903065007 17 122 0.0 1.6 0.00 0.00 0.00 87 1000.5
20260903064007 17 122 0.0 1.6 0.00 0.00 0.00 87 1000.5
20260903062008 17 122 0.0 1.6 0.00 0.00 0.00 87 1000.5
20260903061008 17 122 0.0 1.6 0.00 0.00 0.00 87 1000.5
20260903060007 17 122 0.0 1.6 0.00 0.00 0.00 87 1000.5
20260903055007 17 122 0.0 1.6 0.00 0.00 0.00 87 1000.5
20260903054007 17 122 0.0 1.6 0.00 0.00 0.00 87 1000.5
20260903053007 17 122 0.0 1.6 0.00 0.00 0.00 87 1000.5
20260903052008 17 122 0.0 1.6 0.00 0.00 0.00 87 1000.5
20260903051007 17 122 0.0 1.6 0.00 0.00 0.00 87 1000.5
20260903050007 17 122 0.0 1.6 0.00 0.00 0.00 87 1000.5
20260903045007 17 122 0.0 1.6 0.00 0.00 0.00 87 1000.5
20260903044007 17 122 0.0 1.6 0.00 0.00 0.00 87 1000.5
20260903043007 17 122 0.0 1.6 0.00 0.00 0.00 87 1000.5
20260903042007 17 122 0.0 1.6 0.00 0.00 0.00 87 1000.5
20260903040009 17 122 0.0 1.6 0.00 0.00 0.00 87 1000.5
20260903035007 17 122 0.0 1.6 0.00 0.00 0.00 87 1000.5
20260903034007 17 122 0.0 1.6 0.00 0.00 0.00 87 1000.5
20260903033007 17 122 0.0 1.6 0.00 0.00 0.00 87 1000.5
20260903032007 17 122 0.0 1.6 0.00 0.00 0.00 87 1000.5
20260903031007 17 122 0.0 1.6 0.00 0.00 0.00 87 1000.5
20260903030007 17 122 0.0 1.6 0.00 0.00 0.00 87 1000.5
20260903025006 17 122 0.0 1.6 0.00 0.00 0.00 87 1000.5
20260903024007 17 122 0.0 1.6 0.00 0.00 0.00 87 1000.5
20260903023007 17 122 0.0 3.2 0.00 0.00 0.00 87 1000.5
20260903022006 17 129 1.6 1.6 0.00 0.00 0.00 88 1000.5
20260903020007 17 138 0.0 1.6 0.00 0.00 0.00 89 1000.9
20260903015007 17 141 0.0 1.6 0.00 0.00 0.00 88 1000.9
20260903014006 17 126 0.0 1.6 0.00 0.00 0.00 89 1001.0
20260903013007 17 131 0.0 0.0 0.00 0.00 0.00 88 1001.0
20260903011006 18 131 0.0 1.6 0.00 0.00 0.00 88 1000.8
20260903010006 18 129 0.0 0.0 0.00 0.00 0.00 85 1001.2
20260903005006 18 129 0.0 1.6 0.00 0.00 0.00 83 1001.0
20260903004006 18 126 1.6 3.2 0.00 0.00 0.00 82 1000.5
20260903003006 18 50 1.6 4.8 0.00 0.00 0.00 82 1000.5
20260903002006 18 157 1.6 1.6 0.00 0.00 0.00 82 1000.2
20260903001007 18 137 1.6 1.6 0.00 0.00 0.00 83 1000.4
20260903000006 18 129 0.0 1.6 0.00 0.00 0.00 83 1000.8
20260902235006 18 133 0.0 1.6 0.00 0.00 0.00 83 1000.6
20260902234006 18 137 0.0 1.6 0.00 0.00 0.00 82 1000.8
20260902233006 18 143 1.6 1.6 0.00 0.00 0.00 81 1001.0
20260902232006 19 103 0.0 4.8 0.00 0.00 0.00 80 1001.2
20260902231006 19 106 1.6 4.8 0.00 0.00 0.00 79 1001.3
20260902230005 19 99 1.6 3.2 0.00 0.00 0.00 83 1001.6
20260902224006 19 95 1.6 3.2 0.00 0.00 0.00 85 1002.0
20260902223006 19 115 3.2 3.2 0.00 0.00 0.00 86 1001.9
20260902222006 20 139 0.0 1.6 0.00 0.00 0.00 88 1002.0
20260902215006 20 156 0.0 0.0 0.00 0.00 0.00 89 1001.9
20260902214005 20 156 0.0 0.0 0.00 0.00 0.00 88 1001.8
20260902213005 20 156 0.0 0.0 0.00 0.00 0.00 86 1001.8
20260902212005 20 156 0.0 1.6 0.00 0.00 0.00 86 1001.9
20260902210005 21 121 0.0 1.6 0.00 0.00 0.00 84 1001.8
20260902205005 21 127 0.0 0.0 0.00 0.00 0.00 82 1001.8
20260902204005 21 127 0.0 3.2 0.00 0.00 0.00 81 1001.8
20260902203005 21 108 3.2 4.8 0.00 0.00 0.00 80 1001.5
20260902201011 21 149 0.0 1.6 0.00 0.00 0.00 80 1002.1
20260902194011 21 105 3.2 4.8 0.00 0.00 0.00 77 1002.0
20260902193011 21 146 3.2 4.8 0.00 0.00 0.00 77 1002.2
20260902192011 21 90 4.8 8.0 0.00 0.00 0.00 77 1002.3
20260902191011 21 119 3.2 8.0 0.00 0.00 0.00 78 1002.5
20260902190010 20 87 3.2 4.8 0.00 0.00 0.00 81 1002.5
20260902184010 20 117 1.6 4.8 0.00 0.00 0.00 82 1002.7
20260902183011 20 83 1.6 4.8 0.00 0.00 0.00 84 1002.7
20260902182014 20 101 3.2 4.8 0.00 0.00 0.00 81 1002.7
20260902180010 20 62 3.2 4.8 0.00 0.00 0.00 79 1002.6
20260902175010 20 111 3.2 4.8 0.00 0.00 0.00 81 1002.6
20260902174010 20 108 3.2 4.8 0.00 0.00 0.00 81 1002.8
20260902173010 20 123 1.6 3.2 0.00 0.00 0.00 82 1002.9
20260902172010 19 125 1.6 3.2 0.00 0.00 0.00 82 1003.0
20260902171010 19 121 0.0 1.6 0.00 0.00 0.00 85 1003.0
20260902170010 19 127 1.6 3.2 0.00 0.00 0.00 83 1003.1
20260902165009 19 111 3.2 8.0 0.00 0.00 0.00 83 1003.1
20260902164010 19 86 3.2 4.8 0.00 0.00 0.00 83 1003.1
20260902163010 19 124 3.2 8.0 0.00 0.00 0.00 83 1003.1
20260902162010 19 137 1.6 4.8 0.00 0.00 0.00 82 1003.3
20260902161010 19 140 1.6 4.8 0.00 0.00 0.00 85 1003.2
20260902160010 19 100 4.8 8.0 0.00 0.00 0.00 84 1003.4
20260902155009 19 82 1.6 3.2 0.00 0.00 0.00 87 1003.5
20260902154009 18 129 0.0 3.2 0.00 0.00 0.00 85 1003.7
20260902153010 18 108 1.6 4.8 0.00 0.00 0.00 85 1003.8
20260902151009 18 112 3.2 4.8 0.00 0.00 0.00 85 1004.1
20260902150009 18 139 1.6 4.8 0.00 0.00 0.00 86 1004.0
20260902145009 18 112 1.6 8.0 0.00 0.00 0.00 84 1003.9
20260902144009 18 115 3.2 4.8 0.00 0.00 0.00 83 1003.8
20260902143009 18 66 1.6 4.8 0.00 0.00 0.00 86 1003.9
20260902142009 18 118 1.6 4.8 0.00 0.00 0.00 87 1003.8
20260902141009 18 82 1.6 4.8 0.00 0.00 0.00 86 1003.7
20260902140009 18 90 0.0 3.2 0.00 0.00 0.00 88 1003.8
20260902135009 18 133 0.0 3.2 0.00 0.00 0.00 88 1003.7
20260902133009 18 58 1.6 4.8 0.00 0.00 0.00 88 1003.2
20260902132009 17 136 1.6 1.6 0.00 0.00 0.00 88 1003.1
20260902130008 17 123 1.6 3.2 0.00 0.00 0.00 91 1003.0
20260902125009 16 233 1.6 1.6 0.00 0.00 0.00 93 1003.0
20260902124009 16 219 1.6 1.6 0.00 0.00 0.00 94 1002.9
20260902123009 16 201 1.6 1.6 0.00 0.00 0.00 94 1002.8
20260902121008 16 190 0.0 1.6 0.00 0.00 0.00 95 1002.8
20260902120008 16 194 0.0 1.6 0.00 0.00 0.00 95 1002.8
20260902115009 16 214 0.0 0.0 0.00 0.00 0.00 95 1002.8
20260902114008 16 214 0.0 1.6 0.00 0.00 0.00 95 1002.9
20260902113008 16 198 0.0 0.0 0.00 0.00 0.00 95 1002.9
20260902111008 16 196 0.0 1.6 0.00 0.00 0.00 95 1003.1
20260902110008 16 206 0.0 0.0 0.00 0.00 0.00 95 1003.0
20260902105008 16 206 0.0 0.0 0.00 0.00 0.00 95 1002.9
20260902103008 16 206 0.0 0.0 0.00 0.00 0.00 95 1002.7
20260902102008 16 206 0.0 0.0 0.00 0.00 0.00 95 1002.6
20260902101008 16 206 0.0 0.0 0.00 0.00 0.00 95 1002.4
20260902100008 16 206 0.0 0.0 0.00 0.00 0.00 95 1002.3
20260902094008 16 206 0.0 1.6 0.00 0.00 0.00 95 1002.3
20260902093008 16 189 0.0 0.0 0.00 0.00 0.00 95 1002.4
20260902091009 16 189 0.0 1.6 0.00 0.00 0.00 95 1002.1
20260902085008 16 157 1.6 1.6 0.00 0.00 0.00 95 1001.8
20260902084008 16 141 0.0 0.0 0.00 0.00 0.00 95 1002.0
20260902083008 16 141 0.0 0.0 0.00 0.00 0.00 95 1002.0
20260902082008 16 141 0.0 0.0 0.00 0.00 0.00 95 1001.9
20260902081008 16 141 1.6 1.6 0.00 0.00 0.00 95 1001.9
20260902075007 16 152 0.0 0.0 0.00 0.00 0.00 95 1002.1
20260902074008 16 152 0.0 0.0 0.00 0.00 0.00 95 1002.0
20260902073008 16 152 0.0 1.6 0.00 0.00 0.00 95 1002.0
20260902072007 16 158 1.6 1.6 0.00 0.00 0.00 95 1002.0
20260902071007 16 139 1.6 3.2 0.00 0.00 0.00 95 1002.2
20260902070007 16 132 1.6 1.6 0.00 0.00 0.00 95 1002.3